sat.trackr.live / text

‹ back to catalog

STARLINK-35300

NORAD 65800 · 2025-218K

PAYLOAD ACTIVE UNKNOWN

§ Identity

Operator
Country
US
Launch date
2025-09-26
Launch site
AFWTR
Launch vehicle
Mass (kg)
RCS (m²)

Purposes: comms

External: N2YO · Heavens-Above · Gunter

§ Orbital elements

Epoch: 2026-05-25T02:27:20.174976Z

Period
95.64 min
Inclination
97.4539°
Eccentricity
0.0001764
Mean motion
15.05660542 rev/d
Perigee alt
548.3 km
Apogee alt
550.7 km
Semi-major
6,927.6 km
B*
2.2753e-4
RAAN
7.8328°
Arg perigee
85.0975°
Mean anomaly
275.0454°
Rev number
3,646

§ Raw data

STARLINK-353001 65800U 25218K   26145.10231684  .00003227  00000+0  22753-3 0  99952 65800  97.4539   7.8328 0001764  85.0975 275.0454 15.05660542 36468

JSON: /api/v1/satellites/65800 · /tle

For live sub-satellite position, see the globe view (requires WebGL).

§ Visibility from observer

Set your observer location to see the next 7 days of passes ≥ 10°. The values pass through the URL so the page stays shareable.

No JS? Fill the form by hand. The geolocation button needs JavaScript.